Résultat compétition

ESF ARACHES LES CARROZ : Flèche du 19/02/2009   picture_as_pdf

 Epreuve antérieure au 1er Décembre 2018, ne comptant plus pour le classement SkiOpen.

Ouvreur Handicap Temps Réalisé Temps Base
GUETTET CEDRIC 8.00 49.20 45.55
Médaille Or Vermeil Argent Bronze Fléchette
Pourcentage 15.00% 28.00% 40.00% 45.00% 50.00%
Temps 53.29 59.22 1:06.05 1:12.88 1:15.16
Clt.  expand_more Identité Code S. An Cat Temps Pts Médaille PDF Cor.
1 MONTILLET THIERRY ESF0914000218 M 1965 MA2 50.98 11.91 Or picture_as_pdf edit
2 KLUFTS EVAN FFS2621970 M 1997 BEN 51.37 12.76 Or picture_as_pdf edit
3 MARTIN PAUL ADRIEN ESF0314000031 M 1992 CAD 52.75 15.79 Or picture_as_pdf edit
4 POSSAMAI DYLAN FFS2621239 M 1997 BEN 53.22 16.83 Or picture_as_pdf edit
5 BARRE MAELAN FFS2628646 M 1998 POU 53.91 18.34 Vermeil picture_as_pdf edit
6 CORR CHRIS ESF0914000113 M 1995 MIN 54.18 18.93 Vermeil picture_as_pdf edit
7 JEANNEAU CAMILLE ESF0914000117 F 1995 MIN 54.36 19.33 Vermeil picture_as_pdf edit
8 MARTIN LOUIS NICOLAS ESF0814000189 M 1995 MIN 54.92 20.56 Vermeil picture_as_pdf edit
9 GERDIL MATEO FFS2628653 M 1998 POU 55.12 21.00 Vermeil picture_as_pdf edit
10 BULOZ ADRIEN FFS2628647 M 1998 POU 55.57 21.98 Vermeil picture_as_pdf edit
11 BONNAZ BENJAMIN FFS2640483 M 2000 POU 56.15 23.26 Vermeil picture_as_pdf edit
12 LATORRE EMMA FFS2640694 F 2000 POU 56.95 25.01 Vermeil picture_as_pdf edit
13 CARPANO AIMANCE ESF0914000024 F 1998 POU 57.01 25.15 Vermeil picture_as_pdf edit
14 CHARMOT CAMILLE FFS2616111 F 1996 BEN 57.56 26.35 Vermeil picture_as_pdf edit
15 DUVAL ARSENE FFS2634570 M 1999 POU 57.67 26.59 Vermeil picture_as_pdf edit
16 STEPHENS GENEVIEVE ESF0914000222 F 1997 BEN 57.73 26.73 Vermeil picture_as_pdf edit
17 GUICHEBARON CHARLIE FFS2634387 M 1999 POU 58.13 27.60 Vermeil picture_as_pdf edit
18 MARSCHAL AMANDINE ESF0814000187 F 1997 BEN 58.56 28.55 Vermeil picture_as_pdf edit
19 MARTIN MATHILDE ESF0914000199 F 1998 POU 58.64 28.72 Vermeil picture_as_pdf edit
20 VALES FREDERIC FFS2640701 M 2000 POU 59.04 29.60 Vermeil picture_as_pdf edit
21 POETTOZ SOLENN FFS2627667 F 1998 POU 59.39 30.37 Argent picture_as_pdf edit
22 YVERNAULT AGATHE ESF0914000204 F 1994 MIN 59.89 31.47 Argent picture_as_pdf edit
23 SEQUEIRA ARTHUR ESF0914000107 M 1998 POU 1:00.57 32.96 Argent picture_as_pdf edit
24 COUSIN LAURENT ESF0914000247 M 1964 MA2 1:00.89 33.66 Argent picture_as_pdf edit
25 DEGRAMONT JULIE FFS2629239 F 1998 POU 1:01.15 34.23 Argent picture_as_pdf edit
26 MESSEIN CARRARD ADRIEN ESF0914000197 M 1997 BEN 1:01.28 34.52 Argent picture_as_pdf edit
27 BEHAGHEL AUGUSTIN ESF0814000214 M 1994 MIN 1:01.49 34.98 Argent picture_as_pdf edit
28 VALLAT BENOIT ESF0914000216 M 1970 MA1 1:01.68 35.40 Argent picture_as_pdf edit
29 PETIT THOMAS ESF0914000251 M 1970 MA1 1:01.81 35.68 Argent picture_as_pdf edit
30 GRENIER CHARLOTTE FFS2640691 F 2000 POU 1:01.91 35.90 Argent picture_as_pdf edit
31 MARCHAL DORIAN FFS2642893 M 1995 MIN 1:01.95 35.99 Argent picture_as_pdf edit
32 RAULET CORENTIN ESF0914000221 M 1994 MIN 1:02.06 36.23 Argent picture_as_pdf edit
33 CHAUSSE PHILIPPE ESF0914000202 M 1958 MA3 1:02.47 37.13 Argent picture_as_pdf edit
34 BOUCROT MARION FFS2634569 F 1999 POU 1:02.57 37.35 Argent picture_as_pdf edit
35 VUAGNOUX JEREMY FFS2640704 M 2000 POU 1:02.58 37.37 Argent picture_as_pdf edit
36 MORAVSKI MAXIME ESF0814000206 M 1998 POU 1:02.63 37.48 Argent picture_as_pdf edit
37 SIMEONI THIBAULT ESF0914000071 M 1992 CAD 1:02.73 37.70 Argent picture_as_pdf edit
38 BRIEU EMMA ESF0714002260 F 1998 POU 1:02.79 37.83 Argent picture_as_pdf edit
39 BONNAZ MARIE ESF0632006623 F 2002 POU 1:03.38 39.13 Argent picture_as_pdf edit
40 BROUART CAMILLE ESF0814000414 F 2000 POU 1:03.65 39.72 Argent picture_as_pdf edit
41 MATALON-SIDZINA HENRI ESF0914000067 M 1996 BEN 1:03.78 40.01 Argent picture_as_pdf edit
42 ARTHAUD NINA FFS2642633 F 2000 POU 1:04.14 40.80 Argent picture_as_pdf edit
43 BUISSON MAILYS FFS2627612 F 1998 POU 1:04.17 40.86 Argent picture_as_pdf edit
44 LAPAUZA BAZILE ESF0914000241 M 1994 MIN 1:04.31 41.17 Argent picture_as_pdf edit
45 MARCHAL LOUISE ESF0714002969 F 1995 MIN 1:04.35 41.26 Argent picture_as_pdf edit
46 KLEMENT MARK ESF0814000261 M 1960 MA2 1:04.47 41.52 Argent picture_as_pdf edit
47 GOURIO YANN ESF0914000243 M 1993 CAD 1:04.52 41.63 Argent picture_as_pdf edit
48 JACQUART EMMA ESF0914000144 F 1998 POU 1:04.77 42.18 Argent picture_as_pdf edit
49 EDWARDS SAM FFS2634571 M 1999 POU 1:04.82 42.29 Argent picture_as_pdf edit
50 CHAPMAN KATIE FFS2642790 F 2000 POU 1:04.96 42.60 Argent picture_as_pdf edit
51 KLUFTS BRICE ESF0914000269 M 2000 POU 1:05.03 42.75 Argent picture_as_pdf edit
52 VALLIER LEO ESF0914000145 M 1994 MIN 1:05.73 44.29 Argent picture_as_pdf edit
53 JEANNEAU BAPTISTE ESF0914000029 M 2000 POU 1:06.15 45.21 Bronze picture_as_pdf edit
54 GASQUET PIERRE ESF0914000239 M 1996 BEN 1:06.47 45.91 Bronze picture_as_pdf edit
55 BRONDINO ALEXANDRE ESF0914000226 M 1995 MIN 1:06.75 46.53 Bronze picture_as_pdf edit
56 COUSIN MATHIS FFS2640582 M 2000 POU 1:06.86 46.77 Bronze picture_as_pdf edit
57 VERGARA ROBIN ESF0914000219 M 1994 MIN 1:07.00 47.07 Bronze picture_as_pdf edit
58 MARQUET SAMY ESF0814000385 F 2001 POU 1:07.01 47.10 Bronze picture_as_pdf edit
59 AUVIN ALIX ESF0814000294 F 1997 BEN 1:07.23 47.58 Bronze picture_as_pdf edit
60 AVOCAT DORIANE ESF0814000378 F 2001 POU 1:07.59 48.37 Bronze picture_as_pdf edit
61 SEQUEIRA HUGO ESF0814000076 M 1998 POU 1:07.70 48.61 Bronze picture_as_pdf edit
62 BERTRAND PAUL ESF0914000234 M 1998 POU 1:07.77 48.77 Bronze picture_as_pdf edit
63 GARIN PIERRE ESF0914000217 M 1998 POU 1:08.51 50.39 Bronze picture_as_pdf edit
64 LAPRUN VANESSA ESF0914000242 F 1995 MIN 1:08.65 50.70 Bronze picture_as_pdf edit
65 KAREN MONIQUE ESF0914000203 F 1964 MA2 1:08.82 51.07 Bronze picture_as_pdf edit
66 YVERNAULT SABINE ESF0914000205 M 1996 BEN 1:08.85 51.14 Bronze picture_as_pdf edit
67 PETIT ISABELLE ESF0914000250 F 1970 MA1 1:09.10 51.68 Bronze picture_as_pdf edit
68 GERVAIS MATHILDE FFS2640689 F 2000 POU 1:09.29 52.10 Bronze picture_as_pdf edit
69 POSSAMAI EVA FFS2640700 F 2000 POU 1:09.36 52.26 Bronze picture_as_pdf edit
70 GUINOT JUSTINE ESF0914000196 F 1999 POU 1:09.57 52.72 Bronze picture_as_pdf edit
71 DE L'AULNOIT MARC ESF0914000106 M 1996 BEN 1:09.71 53.02 Bronze picture_as_pdf edit
72 FARDE ANTOINE ESF0814300589 M 1999 POU 1:10.05 53.77 Bronze picture_as_pdf edit
73 GUITTARD GUILLAUME ESF0852700397 M 1995 MIN 1:10.20 54.10 Bronze picture_as_pdf edit
74 BROSSET MAXIME ESF0814000176 M 1997 BEN 1:10.23 54.17 Bronze picture_as_pdf edit
75 LABARRE MATTEO ESF0814000383 M 2001 POU 1:10.37 54.47 Bronze picture_as_pdf edit
76 MEIER RAPHAEL ESF0914000099 M 1996 BEN 1:10.52 54.80 Bronze picture_as_pdf edit
77 JEANNEAU VALENTINE ESF0814000221 F 1998 POU 1:11.02 55.90 Bronze picture_as_pdf edit
78 ZEGADI NEFISSA ESF0814000284 F 1996 BEN 1:11.14 56.16 Bronze picture_as_pdf edit
79 DUVAL ALISTAIR ESF0814000380 F 2001 POU 1:11.67 57.33 Bronze picture_as_pdf edit
80 POUVREAU WALLERAND ESF0914000237 M 1999 POU 1:11.78 57.57 Bronze picture_as_pdf edit
81 LUSSAN OLIVIER ESF0814000247 M 1993 CAD 1:12.22 58.53 Bronze picture_as_pdf edit
82 CASEZ JORIS ESF0914000255 M 1992 CAD 1:12.66 59.50 Bronze picture_as_pdf edit
83 MICALLEF JORIS ESF0914000253 M 1993 CAD 1:12.84 59.89 Bronze picture_as_pdf edit
84 D ANTIN IAN ESF0814000300 M 1996 BEN 1:12.90 60.03 Fléchette picture_as_pdf edit
85 LEROY CORALIE ESF0914000231 F 1998 POU 1:12.99 60.22 Fléchette picture_as_pdf edit
86 LAKOMY ALICIA ESF0514000400 F 1998 POU 1:13.02 60.29 Fléchette picture_as_pdf edit
87 CERRI BASTIEN ESF0814000303 M 1997 BEN 1:13.44 61.21 Fléchette picture_as_pdf edit
88 STREET JONHATAN ESF0914000244 M 1998 POU 1:14.18 62.84 Fléchette picture_as_pdf edit
89 BARBOT REMI ESF0914000225 M 1994 MIN 1:14.27 63.03 Fléchette picture_as_pdf edit
90 AVOCAT EMELYNE ESF0914000163 F 2002 POU 1:14.82 64.24 Fléchette picture_as_pdf edit
91 HAMMONTE MARIE ESF0914000256 F 1992 CAD 1:14.89 64.39 Fléchette picture_as_pdf edit
92 BIGOT ANNE-CECILE ESF0914000233 F 1997 BEN 1:15.03 64.70 Fléchette picture_as_pdf edit
93 ALBEROLA BASTIEN ESF0914000224 M 1993 CAD 1:15.36 65.43 picture_as_pdf edit
94 EDME JADE ESF0914000262 F 1997 BEN 1:15.57 65.89 picture_as_pdf edit
95 POUVREAU APOLLINE ESF0914000236 F 1997 BEN 1:16.10 67.05 picture_as_pdf edit
96 TUPPIN LAETITIA ESF0914000266 F 1996 BEN 1:17.42 69.95 picture_as_pdf edit
97 PORAL JULIEN ESF0914000223 M 1990 JUN 1:17.72 70.61 picture_as_pdf edit
98 RAULT ADRIEN ESF0914000228 M 1994 MIN 1:17.87 70.94 picture_as_pdf edit
99 BROUART PIERRE ESF0914000162 M 2002 POU 1:17.88 70.96 picture_as_pdf edit
100 MATALON-SIDZINA PAULINE ESF0914000069 F 1998 POU 1:18.31 71.90 picture_as_pdf edit
101 MAGUIS ANGELINE ESF0814000246 F 1993 CAD 1:18.33 71.95 picture_as_pdf edit
102 VALENSCAK ALEXANDRE ESF0862311031 M 1999 POU 1:18.76 72.89 picture_as_pdf edit
103 VALLAT MARGAUX ESF0914000214 F 1997 BEN 1:18.87 73.13 picture_as_pdf edit
104 MICHET GABIN ESF0914000246 M 2001 POU 1:18.96 73.33 picture_as_pdf edit
105 PETIOT ROMAIN ESF0914000264 M 1996 BEN 1:19.10 73.64 picture_as_pdf edit
106 FOUQUERON LOUISE ESF0914000230 F 1999 POU 1:19.66 74.87 picture_as_pdf edit
107 AUVIN CLEMENT ESF0814000295 M 1998 POU 1:19.67 74.89 picture_as_pdf edit
108 TISNES MARC YOURI ESF0914000229 M 1993 CAD 1:20.27 76.20 picture_as_pdf edit
109 REGIS PAULINE ESF0914000086 F 2001 POU 1:20.55 76.82 picture_as_pdf edit
110 VUAGNOUX LEO ESF0914000185 M 2003 POU 1:20.68 77.10 picture_as_pdf edit
111 CHARTAUD FABIO ESF0914000227 M 1994 MIN 1:20.70 77.15 picture_as_pdf edit
112 TESSIER LIDIVINE ESF0914000259 F 2003 POU 1:20.73 77.21 picture_as_pdf edit
113 LECONTE QUENTIN ESF0914000257 M 1992 CAD 1:21.13 78.09 picture_as_pdf edit
114 DURAND CELIA ESF0914000265 F 1999 POU 1:21.65 79.23 picture_as_pdf edit
115 MOTTIER VICTOIRE ESF0914000082 F 2000 POU 1:22.37 80.81 picture_as_pdf edit
116 LOBRE WILLIAM ESF0914000263 M 1999 POU 1:22.78 81.71 picture_as_pdf edit
117 DURAND LAURINE ESF0914000245 F 1996 BEN 1:22.99 82.18 picture_as_pdf edit
118 KLEMENT LUCAS ESF0914000211 M 1999 POU 1:23.13 82.48 picture_as_pdf edit
119 CHAUVIN ASTRID ESF0914000240 F 1998 POU 1:23.39 83.05 picture_as_pdf edit
120 LOBRE JUSTINE ESF0914000261 F 1997 BEN 1:23.43 83.14 picture_as_pdf edit
121 DELAVELLE DOROTHEE ESF0914000232 F 1999 POU 1:23.54 83.38 picture_as_pdf edit
122 PETIT MATHILDE ESF0914000249 F 1999 POU 1:25.08 86.76 picture_as_pdf edit
123 KLUFTS LIAM ESF0914000268 M 2001 POU 1:25.46 87.60 picture_as_pdf edit
124 ROUSSEL EMMANUELLE ESF0914000254 F 1992 CAD 1:25.96 88.69 picture_as_pdf edit
125 VAN GAVER LEOPOLD ESF0914000220 M 1999 POU 1:26.40 89.66 picture_as_pdf edit
126 KLEMENT MANON ESF0914000212 F 1996 BEN 1:28.82 94.97 picture_as_pdf edit
127 MINIAOU LEA ESF0914000258 F 1998 POU 1:29.27 95.96 picture_as_pdf edit
128 SEIGNOL BERENGERE ESF0914000267 F 1997 BEN 1:29.74 96.99 picture_as_pdf edit
129 VALLAT AGATHE ESF0914000215 F 1999 POU 1:30.26 98.13 picture_as_pdf edit
130 BRIEU CHLOE ESF0814000296 F 2001 POU 1:35.66 109.99 picture_as_pdf edit
131 GERVAIS ALICIA ESF0914000184 F 2002 POU 1:38.55 116.33 picture_as_pdf edit
132 DESOIZE GIULIA ESF0914000248 F 1998 POU 1:48.65 138.50 picture_as_pdf edit